{"data":{"norad_id":49071,"epoch":"2026-05-24T10:41:59.886528Z","epoch_age_seconds":123068,"freshness":"FRESH","line1":"1 49071U 21074A   26144.44583202  .00001320  00000+0  70708-4 0  9991","line2":"2 49071  97.4809 147.9862 0001802 113.4634 246.6789 15.16732675263679","mean_motion":15.16732675,"eccentricity":0.0001802,"inclination_deg":97.4809,"raan_deg":147.9862,"arg_perigee_deg":113.4634,"mean_anomaly_deg":246.6789,"bstar":7.0708e-5,"rev_number":26367,"period_min":94.940922928294,"perigee_km":514.4810416392,"apogee_km":516.96558889682,"semimajor_km":6893.860315268,"source":"CELESTRAK","updated_at":"2026-05-25T13:37:57.053730Z"}}